Погода в Трубном

Россия / Астраханская область     46°23′11″N   48°32′35″E
темп.,
°C
ветер,
м/с
пор.,
м/с
влажн.,
%
обл.,
%
осадки,
мм/ч
давл.,
гПа
погр.,
м
24 сентября, пт
пт2401:00+16ссз4677100 0.3 1011334
04:00+15с61076100 0.3 1009368
07:00+17св5969100 0.0 1007422
10:00+19юв3450100 0.0 1006815
13:00+22ссз3337100 0.0 10061236
16:00+21зсз8840100 0.0 10071287
19:00+15зсз7117312 0.0 1009561
22:00+13зсз71281100 0.0 1011537
25 сентября, сб
сб2501:00+12зсз71273100 0.0 1011490
04:00+10зсз410794 0.0 1012272
07:00+9зсз36810 0.0 1012130
10:00+16сз3453100 0.0 1012712
13:00+20сз3337100 0.0 10111414
16:00+20сз3435100 0.0 10121502
19:00+17сз3347100 0.0 101351
22:00+15з115399 0.0 101410
26 сентября, вс
вс2601:00+14зюз51077100 0.1 1014521
04:00+14зюз5976100 0.1 1014517
07:00+12зюз498366 0.1 1015257
10:00+17з68535 0.1 1015901
13:00+19з894071 0.0 10142246
16:00+19з81038100 0.0 10132393
19:00+15зюз61148100 0.0 1013481
22:00+14зюз71168100 0.2 1012817
27 сентября, пн
пн2701:00+14зюз8138799 1.9 1010915
04:00+15зюз8148170 2.8 1008758
07:00+13з814750 0.1 1009778
10:00+15з9116112 0.1 10101230
13:00+18зсз1012386 0.0 10112093
16:00+18зсз10123622 0.0 10112325
19:00+14зсз7114615 0.0 1014588
22:00+14зсз694296 0.0 1015899
28 сентября, вт
вт2801:00+11з48646 0.0 1015178
04:00+10з487730 0.0 1016163
07:00+12зсз477086 0.0 1017306
10:00+15ссз345926 0.0 1019823
13:00+18с554483 0.1 10191899
16:00+18с554351 0.1 10201727
19:00+14ссв69526 0.0 1022423
22:00+12ссв475533 0.0 1024194